Location: Elko Observing site
(32.3606°N, 83.7235°W)
Time: 05:51:46
(UTC-04:00)

N. Korean satellite - Visible Passes

Search period start: 23 October 2019 00:00
Search period end: 02 November 2019 00:00
Orbit: 455 x 508 km, 97.2° (Epoch: 22 October)

Date Brightness Start Highest point End Pass type
(mag) Time Alt. Az. Time Alt. Az. Time Alt. Az.
23 Oct 9.7 19:31:47 10° SW 19:34:21 20° W 19:36:57 10° NW visible
24 Oct 8.3 07:01:35 10° NNE 07:05:03 38° E 07:08:31 10° SSE visible
25 Oct 9.9 06:37:08 10° NE 06:39:40 18° E 06:42:13 10° SE visible
26 Oct 10.3 19:50:42 10° WSW 19:51:52 11° W 19:53:02 10° WNW visible
27 Oct 7.0 07:18:49 10° NNE 07:22:30 73° E 07:26:12 10° S visible
27 Oct 9.1 19:23:31 10° SSW 19:26:26 26° W 19:29:22 10° NW visible
28 Oct 8.9 06:53:52 10° NE 06:57:10 30° E 07:00:28 10° SSE visible
29 Oct 10.2 06:29:44 10° ENE 06:31:45 14° E 06:33:47 10° SE visible
30 Oct 10.0 19:41:52 10° SW 19:43:53 15° W 19:45:56 10° WNW visible
31 Oct 7.5 07:10:58 10° NNE 07:14:37 55° E 07:18:15 10° S visible
31 Oct 8.6 19:15:19 10° SSW 19:18:27 33° W 19:21:40 10° NNW visible
01 Nov 9.3 06:46:11 10° NE 06:49:15 24° E 06:52:18 10° SSE visible
